This is the latest recevied weather packets stored in our database for station/object KA8OAD-10. If no packets are shown the sender has not sent any weather packets the latest 10 day(s).
| Time | Temp. | Humidity | Pressure | Rain* | Wind** | Luminosity | Snow |
|---|---|---|---|---|---|---|---|
| 1787581861 | 16.67° C | 75% | 1014.7 hPa | 0 mm | - | 172 W/m² | - |
| 1787581561 | 16.67° C | 75% | 1014.6 hPa | 0 mm | - | 118 W/m² | - |
| 1787581264 | 16.11° C | 77% | 1014.6 hPa | 0 mm | - | 63 W/m² | - |
| 1787580963 | 16.11° C | 77% | 1014.6 hPa | 0 mm | - | 63 W/m² | - |
| 1787580662 | 16.11° C | 77% | 1014.6 hPa | 0 mm | - | 49 W/m² | - |
| 1787580363 | 15.56° C | 79% | 1014.7 hPa | 0 mm | - | 46 W/m² | - |
| 1787579761 | 15.56° C | 81% | 1014.8 hPa | 0 mm | - | 63 W/m² | - |
| 1787579461 | 15° C | 82% | 1014.8 hPa | 0 mm | - | 44 W/m² | - |
| 1787578860 | 14.44° C | 84% | 1014.6 hPa | 0 mm | - | 118 W/m² | - |
| 1787578564 | 14.44° C | 84% | 1014.7 hPa | 0 mm | - | 104 W/m² | - |
| 1787578263 | 14.44° C | 85% | 1014.6 hPa | 0 mm | - | 111 W/m² | - |
| 1787577963 | 13.89° C | 86% | 1014.6 hPa | 0 mm | - | 127 W/m² | - |
| 1787577362 | 13.33° C | 88% | 1014.5 hPa | 0 mm | - | 60 W/m² | - |
| 1787577060 | 13.33° C | 88% | 1014.5 hPa | 0 mm | - | 62 W/m² | - |
| 1787576760 | 13.33° C | 88% | 1014.5 hPa | 0 mm | - | 63 W/m² | - |
| 1787576464 | 13.33° C | 88% | 1014.5 hPa | 0 mm | - | 69 W/m² | - |
| 1787575562 | 13.33° C | 89% | 1014.2 hPa | 0 mm | - | 19 W/m² | - |
| 1787574961 | 13.33° C | 89% | 1014.2 hPa | 0 mm | - | 37 W/m² | - |
| 1787574660 | 13.33° C | 89% | 1014.2 hPa | 0 mm | - | 39 W/m² | - |
| 1787574364 | 13.33° C | 89% | 1014.3 hPa | 0 mm | - | 37 W/m² | - |
| 1787574064 | 13.33° C | 89% | 1014.3 hPa | 0 mm | - | 28 W/m² | - |
| 1787573162 | 12.78° C | 89% | 1014.3 hPa | 0 mm | - | 14 W/m² | - |
| 1787572862 | 12.78° C | 89% | 1014.3 hPa | 0 mm | - | 12 W/m² | - |
| 1787572561 | 12.78° C | 89% | 1014.4 hPa | 0 mm | - | 7 W/m² | - |
| 1787571963 | 13.33° C | 89% | 1014.3 hPa | 0 mm | - | 19 W/m² | - |
* Rain latest hour (hover to see other rain measurements)
** Current wind speed in m/s (hover to see current wind gust speed)